[[{"header":{"parameterUnit":"m.s-1","parameterCategory":1,"la1":30.2991,"la2":30.254,"lo1":-89.0895,"lo2":-89.0444,"dy":0.0017,"dx":0.0017,"nx":28,"ny":28,"refTime":"2023-10-05T03:00:00:Z","depth":0,"parameterNumber":2,"parameterNumberName":"U-component_of_WINDS"},"data":[0,0,0,0,0,0,0,0,0,0,0,0,0,0,0,0,0,0,0,0,0,0,0,0,0,0,0,0,0,0,0,0,0,0,0,0,0,0,0,0,0,0,0,0,0,0,0,0,0,0,0,0,0,0,0,0,0,0,-1.8493,-1.8495,0,-1.8678,-1.868,-1.8682,-1.8777,-1.8777,-1.8777,-1.8777,-1.8966,-1.8971,-1.8976,0,0,0,0,0,0,0,0,0,0,0,0,0,-1.8221,-1.8225,-1.8493,-1.8495,-1.8498,-1.8678,-1.868,-1.8683,-1.8777,-1.8777,-1.8777,-1.8778,-1.8964,-1.897,-1.8976,0,0,0,0,0,0,0,0,0,0,0,0,0,-1.8365,-1.8227,-1.8493,-1.8566,-1.8575,-1.8677,-1.868,-1.8683,-1.8777,-1.8777,-1.8777,-1.8778,-1.8962,-1.897,-1.8977,-1.9019,0,0,-1.8999,-1.9003,0,0,0,0,0,0,0,0,-1.8357,-1.8375,-1.8553,-1.8562,-1.8571,-1.8705,-1.8653,-1.8796,-1.8777,-1.87,-1.8777,-1.8778,-1.8879,-1.8893,-1.8927,-1.9028,-1.9036,-1.9,-1.9005,-1.9008,-1.901,0,0,0,0,0,0,0,-1.8347,-1.8368,-1.8566,-1.8556,-1.8567,-1.859,-1.8611,-1.8681,-1.8786,-1.8707,-1.8714,-1.8735,-1.8884,-1.892,-1.8933,-1.9039,-1.9,-1.9006,-1.9011,-1.9014,-1.9184,-1.9184,0,0,0,0,0,0,-1.8325,-1.8359,-1.856,-1.8572,-1.8462,-1.8595,-1.8618,-1.8662,-1.8786,-1.8805,-1.8735,-1.8739,-1.8907,-1.8924,-1.894,-1.8998,-1.9008,-1.9015,-1.9019,-1.9184,-1.9184,-1.9184,0,0,0,0,0,0,-1.8319,-1.8342,-1.8553,-1.8468,-1.8496,-1.8599,-1.8648,-1.8665,-1.8702,-1.8807,-1.8826,-1.8752,-1.8908,-1.8929,-1.8999,-1.9006,-1.9018,-1.9025,-1.9184,-1.9184,-1.9184,-1.9114,0,0,0,0,0,0,-1.8311,-1.8339,-1.8357,-1.8467,-1.85,-1.8609,-1.8648,-1.8669,-1.8714,-1.8721,-1.8829,-1.8847,-1.891,-1.8987,-1.9006,-1.9016,-1.903,-1.9184,-1.9184,-1.9184,-1.9116,-1.9112,-1.9108,0,0,0,0,0,-1.8301,-1.8329,-1.8357,-1.8381,-1.8524,-1.8609,-1.8628,-1.8701,-1.8714,-1.8733,-1.88,-1.8843,-1.9002,-1.8994,-1.9016,-1.9028,-1.9184,-1.9184,-1.9184,-1.9118,-1.9112,-1.9108,0,0,0,0,0,0,-1.8217,-1.8345,-1.8378,-1.8443,-1.8514,-1.8625,-1.8651,-1.8693,-1.8762,-1.8765,-1.8852,-1.8876,-1.8937,-1.899,-1.8979,-1.9076,-1.9097,-1.9102,-1.9039,-1.9035,-1.9031,-1.9017,-1.9037,0,0,0,0,0,-1.8206,-1.8265,-1.8374,-1.8421,-1.8455,-1.8546,-1.8586,-1.8636,-1.8713,-1.8744,-1.8817,-1.889,-1.8957,-1.8999,-1.9066,-1.9124,-1.9149,-1.9143,-1.9139,-1.9135,-1.9138,-1.9173,-1.9172,-1.9185,-1.9185,-1.9185,0,0,-1.8184,-1.8262,-1.8293,-1.8406,-1.8467,-1.8526,-1.8571,-1.8631,-1.8676,-1.8753,-1.8824,-1.8879,-1.8967,-1.9031,-1.9063,-1.9077,-1.914,-1.9135,-1.9131,-1.9137,-1.9173,-1.9171,-1.917,-1.9185,-1.9185,-1.9185,0,0,-1.8174,-1.8239,-1.8285,-1.8346,-1.8438,-1.8499,-1.8509,-1.8614,-1.8654,-1.8726,-1.8786,-1.884,-1.8952,-1.9013,-1.9058,-1.907,-1.9112,-1.909,-1.9068,-1.9101,-1.91,-1.9099,-1.9104,-1.9104,-1.9092,-1.9092,-1.9092,0,-1.8135,-1.8226,-1.8303,-1.836,-1.8408,-1.8481,-1.8529,-1.8584,-1.8693,-1.8724,-1.8738,-1.8881,-1.8945,-1.9024,-1.9027,-1.9062,-1.9077,-1.9078,-1.9094,-1.9094,-1.9095,-1.91,-1.9101,-1.9089,-1.9089,-1.9089,-1.909,0,-1.8173,-1.8235,-1.8262,-1.8366,-1.8417,-1.8468,-1.8553,-1.8595,-1.864,-1.8699,-1.8771,-1.8851,-1.8935,-1.8958,-1.9003,-1.9044,-1.9049,-1.9077,-1.91,-1.9089,-1.9095,-1.9098,-1.9084,-1.9085,-1.9086,-1.9087,0,0,-1.8115,-1.8262,-1.827,-1.8318,-1.8426,-1.8475,-1.853,-1.8613,-1.8647,-1.872,-1.8768,-1.8862,-1.8888,-1.894,-1.8992,-1.902,-1.9025,-1.9045,-1.9049,-1.9039,-1.9075,-1.9053,-1.9054,-1.9054,-1.9054,-1.9055,-1.9068,0,-1.812,-1.8223,-1.8294,-1.8369,-1.8427,-1.8497,-1.8545,-1.8616,-1.8673,-1.873,-1.8793,-1.8857,-1.8888,-1.8919,-1.8951,-1.9018,-1.9034,-1.9018,-1.9099,-1.9101,-1.9075,-1.9058,-1.9035,-1.9043,-1.9071,-1.9071,-1.9072,0,-1.814,-1.8211,-1.8291,-1.8393,-1.842,-1.8461,-1.8543,-1.8597,-1.8679,-1.8718,-1.8775,-1.8829,-1.8889,-1.8907,-1.8992,-1.898,-1.9017,-1.9055,-1.9057,-1.9068,-1.9085,-1.9067,-1.9048,-1.9049,-1.9076,-1.9076,-1.9076,0,-1.8089,-1.8205,-1.8268,-1.8307,-1.8427,-1.8455,-1.8506,-1.8588,-1.8633,-1.8704,-1.8735,-1.8812,-1.8854,-1.8912,-1.8985,-1.8991,-1.9062,-1.9086,-1.9096,-1.9094,-1.9108,-1.9106,-1.9094,-1.9132,-1.9132,-1.9132,-1.9132,0,-1.8087,-1.8133,-1.8247,-1.8285,-1.8339,-1.8421,-1.8472,-1.8529,-1.8601,-1.8652,-1.8718,-1.8764,-1.8858,-1.8915,-1.8972,-1.9034,-1.9053,-1.9086,-1.91,-1.908,-1.9075,-1.9105,-1.9106,-1.9133,-1.9132,-1.9132,-1.9132,0,-1.8039,-1.8117,-1.8191,-1.8298,-1.8326,-1.8361,-1.8453,-1.8493,-1.8554,-1.8617,-1.8637,-1.8731,-1.8802,-1.8881,-1.8978,-1.9017,-1.9075,-1.9096,-1.9047,-1.9055,-1.9061,-1.9059,-1.9067,-1.9072,-1.9106,-1.9106,-1.9106,0,-1.8032,-1.807,-1.8182,-1.8221,-1.827,-1.8332,-1.8379,-1.846,-1.8506,-1.8602,-1.863,-1.8707,-1.8772,-1.8883,-1.896,-1.9034,-1.9058,-1.9055,-1.9069,-1.9047,-1.9058,-1.9054,-1.9058,-1.9051,-1.905,-1.905,-1.9049,0,-1.8012,-1.8049,-1.8114,-1.8192,-1.8246,-1.8312,-1.838,-1.8408,-1.8503,-1.8551,-1.8625,-1.8676,-1.8776,-1.885,-1.8935,-1.8987,-1.9034,-1.9044,-1.905,-1.903,-1.9,-1.9016,-1.9035,-1.9043,-1.9044,-1.9044,-1.9045,-1.9045,-1.7985,-1.8021,-1.8106,-1.8176,-1.8236,-1.8298,-1.8341,-1.8407,-1.847,-1.8558,-1.8602,-1.8675,-1.8756,-1.8875,-1.8926,-1.8984,-1.8999,-1.9008,-1.901,-1.9011,-1.9006,-1.899,-1.9,-1.9,-1.9001,-1.9001,-1.9001,0,-1.7967,-1.8025,-1.8089,-1.8183,-1.8238,-1.8277,-1.8355,-1.8398,-1.8462,-1.8534,-1.8597,-1.8682,-1.8755,-1.8838,-1.8916,-1.8947,-1.897,-1.8965,-1.8963,-1.8974,-1.8988,-1.8975,-1.8944,-1.8944,-1.8944,-1.8944,-1.8944,-1.8944,-1.7965,-1.8029,-1.8075,-1.817,-1.8228,-1.83,-1.8341,-1.8399,-1.8457,-1.8548,-1.861,-1.8663,-1.874,-1.8824,-1.8893,-1.8916,-1.8941,-1.8929,-1.8958,-1.8969,-1.8973,-1.8978,-1.8966,-1.8934,-1.8934,-1.8939,-1.8939,-1.8939]},{"header":{"parameterUnit":"m.s-1","parameterCategory":1,"la1":30.2991,"la2":30.254,"lo1":-89.0895,"lo2":-89.0444,"dy":0.0017,"dx":0.0017,"nx":28,"ny":28,"refTime":"2023-10-05T03:00:00:Z","depth":0,"parameterNumber":3,"parameterNumberName":"V-component_of_WINDS"},"data":[0,0,0,0,0,0,0,0,0,0,0,0,0,0,0,0,0,0,0,0,0,0,0,0,0,0,0,0,0,0,0,0,0,0,0,0,0,0,0,0,0,0,0,0,0,0,0,0,0,0,0,0,0,0,0,0,0,0,-4.3314,-4.3314,0,-4.331,-4.331,-4.331,-4.3222,-4.322,-4.3218,-4.3216,-4.3211,-4.3213,-4.3215,0,0,0,0,0,0,0,0,0,0,0,0,0,-4.3245,-4.3247,-4.3314,-4.3314,-4.3314,-4.331,-4.331,-4.331,-4.3223,-4.322,-4.3217,-4.3214,-4.321,-4.3213,-4.3215,0,0,0,0,0,0,0,0,0,0,0,0,0,-4.3262,-4.3248,-4.3314,-4.327,-4.3266,-4.331,-4.331,-4.331,-4.3223,-4.322,-4.3216,-4.3213,-4.3209,-4.3212,-4.3215,-4.3301,0,0,-4.3224,-4.3226,0,0,0,0,0,0,0,0,-4.3261,-4.3264,-4.3276,-4.3273,-4.3269,-4.3263,-4.3284,-4.3307,-4.3224,-4.3239,-4.3215,-4.3212,-4.3231,-4.3232,-4.3239,-4.3301,-4.3301,-4.3225,-4.3226,-4.3228,-4.3228,0,0,0,0,0,0,0,-4.326,-4.3264,-4.3312,-4.3277,-4.3272,-4.325,-4.3249,-4.3288,-4.3254,-4.3238,-4.3231,-4.3232,-4.3228,-4.3236,-4.3238,-4.3301,-4.3224,-4.3227,-4.3229,-4.323,-4.3433,-4.3436,0,0,0,0,0,0,-4.3265,-4.3264,-4.3312,-4.3312,-4.3256,-4.3254,-4.3252,-4.3268,-4.3253,-4.3248,-4.3235,-4.3228,-4.3233,-4.3234,-4.3237,-4.3337,-4.3228,-4.323,-4.3232,-4.3429,-4.3434,-4.3438,0,0,0,0,0,0,-4.3264,-4.327,-4.3313,-4.3286,-4.329,-4.3259,-4.3277,-4.327,-4.3278,-4.3251,-4.3245,-4.3249,-4.323,-4.3233,-4.3286,-4.3335,-4.3232,-4.3234,-4.3425,-4.3431,-4.3436,-4.3537,0,0,0,0,0,0,-4.3262,-4.327,-4.3303,-4.3288,-4.3292,-4.3362,-4.328,-4.3272,-4.3283,-4.3274,-4.3263,-4.3258,-4.3228,-4.3282,-4.3289,-4.3338,-4.3237,-4.342,-4.3428,-4.3434,-4.3529,-4.3545,-4.3559,0,0,0,0,0,-4.326,-4.3331,-4.3305,-4.3311,-4.3332,-4.3365,-4.3367,-4.3331,-4.3287,-4.332,-4.3303,-4.3258,-4.3329,-4.3288,-4.3295,-4.3345,-4.3417,-4.3426,-4.3433,-4.3522,-4.3542,-4.3558,0,0,0,0,0,0,-4.3353,-4.3328,-4.3299,-4.3367,-4.3369,-4.335,-4.339,-4.3353,-4.3367,-4.3357,-4.3312,-4.331,-4.337,-4.3363,-4.3318,-4.3428,-4.3365,-4.3375,-4.343,-4.3449,-4.3463,-4.3464,-4.3239,0,0,0,0,0,-4.3381,-4.3411,-4.3387,-4.345,-4.3452,-4.3421,-4.3434,-4.3406,-4.3406,-4.3406,-4.3393,-4.3394,-4.3416,-4.3432,-4.3451,-4.3527,-4.3524,-4.3565,-4.358,-4.3593,-4.3602,-4.3642,-4.366,-4.3464,-4.3464,-4.3464,0,0,-4.344,-4.3431,-4.3452,-4.3469,-4.3466,-4.3497,-4.3422,-4.3458,-4.3481,-4.3411,-4.346,-4.3451,-4.3449,-4.3514,-4.3542,-4.351,-4.3655,-4.3603,-4.3613,-4.3615,-4.3652,-4.367,-4.3687,-4.347,-4.3469,-4.3468,0,0,-4.3564,-4.356,-4.3611,-4.3611,-4.3608,-4.3587,-4.36,-4.3586,-4.3578,-4.3626,-4.3575,-4.3601,-4.364,-4.3641,-4.3647,-4.3771,-4.373,-4.3778,-4.3856,-4.3895,-4.3911,-4.3924,-4.3969,-4.3985,-4.3787,-4.3788,-4.3788,0,-4.3637,-4.3682,-4.3642,-4.3682,-4.3691,-4.3629,-4.3681,-4.3682,-4.3687,-4.3694,-4.3658,-4.3707,-4.3701,-4.3765,-4.3796,-4.3802,-4.3815,-4.3779,-4.3912,-4.3925,-4.3937,-4.3979,-4.3995,-4.3793,-4.3793,-4.3792,-4.3792,0,-4.3773,-4.3805,-4.3847,-4.3853,-4.3866,-4.3912,-4.3878,-4.3897,-4.3868,-4.385,-4.39,-4.3892,-4.3908,-4.3921,-4.3893,-4.3982,-4.3962,-4.392,-4.3856,-4.3962,-4.4001,-4.4016,-4.3802,-4.38,-4.3798,-4.3796,0,0,-4.3955,-4.3938,-4.3954,-4.3956,-4.3949,-4.3973,-4.4015,-4.4031,-4.4048,-4.4053,-4.4088,-4.4123,-4.4084,-4.409,-4.4062,-4.4096,-4.4195,-4.4049,-4.4049,-4.4077,-4.4292,-4.4324,-4.4343,-4.4168,-4.4171,-4.4173,-4.4293,0,-4.4074,-4.4146,-4.4111,-4.4188,-4.4217,-4.4159,-4.4196,-4.4196,-4.4181,-4.4203,-4.4186,-4.4211,-4.4158,-4.4161,-4.4193,-4.4176,-4.4238,-4.4167,-4.42,-4.4202,-4.4202,-4.4363,-4.4397,-4.451,-4.4307,-4.431,-4.4312,0,-4.4223,-4.4234,-4.4314,-4.4301,-4.4312,-4.4346,-4.4358,-4.438,-4.4379,-4.4365,-4.4373,-4.4336,-4.4377,-4.4314,-4.4369,-4.4322,-4.4334,-4.4328,-4.4331,-4.4333,-4.4263,-4.437,-4.4545,-4.4562,-4.4335,-4.4333,-4.4331,0,-4.4348,-4.4383,-4.4435,-4.4438,-4.4425,-4.4451,-4.4446,-4.4441,-4.4453,-4.4464,-4.4471,-4.4486,-4.4494,-4.4507,-4.4475,-4.4432,-4.4535,-4.447,-4.4525,-4.4526,-4.455,-4.4549,-4.473,-4.4557,-4.4557,-4.4557,-4.4556,0,-4.4485,-4.4536,-4.4491,-4.4523,-4.4578,-4.4537,-4.4593,-4.4582,-4.4579,-4.4607,-4.4558,-4.4586,-4.4543,-4.4566,-4.4542,-4.4592,-4.4596,-4.4586,-4.4579,-4.4591,-4.4592,-4.4598,-4.4589,-4.4561,-4.456,-4.4559,-4.4558,0,-4.4634,-4.4606,-4.4659,-4.4642,-4.4639,-4.468,-4.4666,-4.4695,-4.4676,-4.4713,-4.472,-4.4691,-4.4716,-4.4686,-4.4708,-4.4692,-4.476,-4.4741,-4.4761,-4.4755,-4.4813,-4.4808,-4.5004,-4.5028,-4.484,-4.4842,-4.4843,0,-4.4723,-4.4761,-4.4748,-4.4764,-4.4763,-4.4789,-4.4801,-4.4762,-4.4777,-4.4778,-4.4807,-4.4828,-4.4843,-4.4886,-4.4867,-4.4884,-4.4866,-4.4933,-4.4868,-4.4879,-4.4867,-4.4865,-4.4869,-4.4947,-4.4949,-4.4951,-4.4952,0,-4.4885,-4.4869,-4.4888,-4.4903,-4.4919,-4.4928,-4.4934,-4.495,-4.4909,-4.4928,-4.4954,-4.4965,-4.4989,-4.5011,-4.5022,-4.5018,-4.4979,-4.4973,-4.4987,-4.4999,-4.5009,-4.5005,-4.4797,-4.4969,-4.4967,-4.4966,-4.4965,-4.4964,-4.5007,-4.5038,-4.5034,-4.5057,-4.5057,-4.5064,-4.509,-4.5075,-4.5095,-4.5111,-4.5087,-4.5119,-4.5116,-4.5128,-4.5128,-4.5153,-4.5124,-4.5144,-4.5149,-4.5154,-4.5163,-4.5005,-4.5155,-4.5154,-4.5154,-4.5153,-4.5153,0,-4.5166,-4.5161,-4.5182,-4.5192,-4.521,-4.5172,-4.5176,-4.5194,-4.5223,-4.5223,-4.5239,-4.5269,-4.529,-4.5272,-4.529,-4.5313,-4.5295,-4.5318,-4.5316,-4.5316,-4.5188,-4.5174,-4.5332,-4.5332,-4.5332,-4.5332,-4.5332,-4.5332,-4.5251,-4.5302,-4.5285,-4.5335,-4.5329,-4.536,-4.5366,-4.5372,-4.5372,-4.5407,-4.5425,-4.5413,-4.5407,-4.5423,-4.5441,-4.5435,-4.5444,-4.5474,-4.5462,-4.5343,-4.5325,-4.5308,-4.5295,-4.5476,-4.5476,-4.5588,-4.5589,-4.5589]}]]